Weather observations for the past three days for
Corpus Christi, Corpus Christi Naval Air Station/Truax Field
Imperial (Metric)
Date Time (cdt) Wind (mph) Vis. (mi.) Weather Sky Cond. Temperature (ºF) Relative Humidity Wind Chill (°F) Heat Index (°F) Pressure Precipitation (in)
Air Dwpt 6 hour altimeter (in) sea level (mb) 1 hr 3 hr 6 hr
Max. Min.
22 09:56 E 15 10.00 A Few Clouds FEW032 0 0 0% 30.01 1016.3
22 08:56 NE 14 10.00 Partly Cloudy SCT024 0 0 0% 30.02 1016.7
22 07:56 E 12 10.00 A Few Clouds FEW025 0 0 0% 30.01 1016.3
22 05:56 E 12 10.00 Fair CLR 0 0 0% 30 1016.0
22 04:56 E 10 10.00 Fair CLR 0 0 0% 29.99 1015.7
22 03:56 E 12 10.00 A Few Clouds FEW026 0 0 0% 29.99 1015.7
22 02:56 E 9 10.00 Fair CLR 0 0 0% 30 1016.0
22 01:56 E 13 10.00 Fair CLR 0 0 0% 30.01 1016.3
22 00:56 E 14 10.00 A Few Clouds FEW020 0 0 0% 30.01 1016.3
21 23:56 E 13 10.00 Fair CLR 0 0 0% 30.02 1016.7
21 22:56 E 10 10.00 Fair CLR 0 0 0% 30.02 1016.7
21 21:56 E 17 10.00 Fair CLR 0 0 0% 30.01 1016.3
21 20:56 E 16 10.00 A Few Clouds FEW021 FEW031 0 0 0% 30 1016.0
21 19:56 E 14 10.00 A Few Clouds FEW020 0 0 0% 30 1016.0
21 18:56 E 17 10.00 Partly Cloudy FEW021 SCT030 86 75 90 84.9 70% 95 29.99 1015.4
21 17:56 E 15 10.00 Partly Cloudy FEW025 SCT040 SCT060 87.1 73.9 65% 95 29.99 1015.4
21 16:56 E 18 10.00 Mostly Cloudy SCT023 SCT030 BKN044 89.1 75.9 65% 100 30 1015.8
21 15:56 SE 14 G 26 10.00 Mostly Cloudy SCT022 SCT030 BKN044 89.1 75.9 65% 100 30.01 1016.2
21 14:56 E 14 9.00 Light Rain FEW038 SCT048 BKN060 89.1 77 68% 102 30.03 1016.8
21 13:56 E 18 10.00 Mostly Cloudy SCT025 BKN035 BKN060 89.1 77 68% 102 30.05 1017.4
21 12:56 E 17 10.00 Light Rain FEW023 SCT045 BKN070 89.1 77 89.1 82.9 68% 102 30.05 1017.7
21 11:56 E 16 10.00 Mostly Cloudy FEW023 SCT035 BKN060 89.1 77 68% 102 30.06 1017.9
21 10:56 E 18 10.00 Mostly Cloudy FEW023 SCT032 BKN250 87.1 77 72% 99 30.06 1017.9
21 09:56 E 17 10.00 Mostly Cloudy SCT025 BKN035 BKN250 86 75.9 72% 96 30.05 1017.7
21 08:56 E 15 10.00 Mostly Cloudy FEW023 SCT045 BKN250 84 77 80% 94 30.04 1017.3
21 07:56 E 15 10.00 Partly Cloudy FEW024 FEW045 SCT250 84 77 80% 94 30.01 1016.2
21 06:56 E 17 G 26 10.00 Mostly Cloudy FEW022TCU SCT044 BKN250 82.9 77 82% 92 30 1015.8 0.06
21 05:56 E 16 10.00 Mostly Cloudy BKN018 BKN045 BKN250 82.9 77 82% 92 29.99 1015.6
21 04:56 E 16 10.00 A Few Clouds FEW023 FEW029 0 0 0% 29.99 1015.7
21 03:56 E 16 10.00 Partly Cloudy FEW020 SCT040 SCT055 0 0 0% 29.99 1015.7 0.06
21 02:56 E 15 10.00 A Few Clouds FEW020 0 0 0% 30 1016.0
21 01:56 E 16 10.00 Partly Cloudy FEW020 SCT041 0 0 0% 30.01 1016.3 0.06
21 00:56 E 13 10.00 Mostly Cloudy FEW044 BKN095 0 0 0% 30.02 1016.7 0.02 0.02
20 23:56 E 20 10.00 Partly Cloudy FEW020 SCT027 SCT037 0 0 0% 30.02 1016.7
20 22:56 E 20 10.00 Partly Cloudy FEW021 SCT029 SCT035 84 75.9 77% 93 30.01 1016.2
20 21:56 E 18 G 29 10.00 Mostly Cloudy SCT020 BKN030 84 75.9 77% 93 30 1015.8
20 20:56 E 21 10.00 Mostly Cloudy and Breezy SCT020 BKN030 84 75.9 77% 93 29.98 1015.3
20 19:56 E 24 G 32 10.00 Mostly Cloudy and Breezy SCT019 SCT026 BKN040 82.9 77 82% 92 29.96 1014.4
20 18:56 E 24 9.00 Mostly Cloudy and Breezy SCT019 SCT025 BKN030 84 77 90 84 80% 94 29.94 1013.9 0.03
20 17:56 E 25 G 33 10.00 Mostly Cloudy and Breezy SCT020 SCT027 BKN050 84 78.1 82% 95 29.94 1013.7
20 16:56 E 24 G 32 9.00 Mostly Cloudy and Breezy SCT022 SCT040 BKN055 86 78.1 77% 98 29.95 1014.0 0.03
20 15:56 E 24 G 38 10.00 Mostly Cloudy and Breezy SCT024 SCT033 BKN250 87.1 78.1 75% 100 29.95 1014.2
20 14:56 E 30 G 38 10.00 Partly Cloudy and Windy FEW022 FEW050 SCT250 89.1 79 72% 105 29.95 1014.3
20 13:56 E 26 G 39 10.00 Mostly Cloudy and Windy FEW020 SCT035 BKN250 90 79 70% 106 29.95 1014.2
20 12:56 E 24 G 36 10.00 Mostly Cloudy and Breezy SCT021TCU BKN031 BKN250 90 79 90 81 70% 106 29.95 1014.3 1.65
20 11:56 E 28 G 39 10.00 Mostly Cloudy and Windy SCT018 BKN030 BKN250 86 78.1 77% 98 29.96 1014.3
20 10:56 E 24 G 36 9.00 Mostly Cloudy and Breezy FEW014 SCT025 SCT050 BKN250 86 79 80% 100 29.93 1013.5 0.83
20 09:56 SE 28 G 35 0.75 Thunderstorm Heavy Rain Fog/Mist and Windy BKN016CB BKN022 OVC040 82 75.9 82% 89 29.93 1013.3 0.82 0.82
20 08:56 SE 33 G 43 3.00 Rain Fog/Mist and Windy BKN022CB OVC047 84 79 85% 96 29.92 1013.1
20 07:56 E 25 G 36 9.00 Overcast and Breezy SCT018 BKN027 OVC250 84 79 85% 96 29.88 1011.6
20 06:56 E 24 G 32 10.00 Mostly Cloudy and Breezy SCT021 SCT120 BKN250 84 79 85% 96 29.85 1010.8 0.02
20 05:56 E 28 G 40 10.00 Mostly Cloudy and Windy SCT021 SCT050 BKN120 BKN250 84 78.1 82% 95 29.84 1010.3
20 04:56 E 28 G 38 9.00 Overcast and Windy BKN026 OVC033 0 0 0% 29.82 1009.9
20 03:56 E 26 G 38 9.00 Overcast and Windy SCT024 OVC030 0 0 0% 29.83 1010.2 0.02
20 02:56 E 28 G 41 9.00 Overcast and Windy FEW022 BKN027 OVC110 0 0 0% 29.83 1010.2 0.01
20 01:56 E 29 G 41 9.00 Light Rain and Windy SCT026 BKN044 OVC080 0 0 0% 29.82 1009.9 0.01
20 00:52 E 31 G 45 7.00 Light Rain and Windy BKN024 BKN033 OVC060 0 0 0% 29.83 1010.2 0.03 0.37
19 23:56 E 30 G 45 3.00 Rain and Windy FEW018 SCT025 OVC032 0 0 0% 29.83 1010.2 0.1
19 22:56 E 32 G 43 7.00 Light Rain and Windy BKN019 BKN031 OVC046 0 0 0% 29.82 1009.9 0.16
19 20:56 E 25 G 37 6.00 Light Rain and Breezy FEW019 BKN026 OVC034 0 0 0% 29.78 1008.5 0.01
19 19:56 E 25 G 43 10.00 Mostly Cloudy and Breezy FEW021 BKN027 BKN055 0 0 0% 29.77 1008.2
19 17:56 E 26 G 37 2.50 Rain and Windy SCT016 BKN027 OVC070 0 0 0% 29.75 1007.5 0.02
19 16:56 E 23 G 31 8.00 Overcast and Breezy FEW011 BKN019 OVC044 0 0 0% 29.76 1007.9 0.07
19 15:56 NE 22 G 30 7.00 Light Rain and Breezy SCT015 BKN020 OVC035 0 0 0% 29.76 1007.9 0.01 0.19
19 14:56 NE 16 G 28 1.00 Heavy Rain SCT005 OVC012 0 0 0% 29.77 1008.2 0.17
19 13:56 N 20 10.00 Light Rain SCT015 BKN024 OVC036 0 0 0% 29.78 1008.5 0.01
19 12:56 NE 20 G 26 7.00 Light Rain FEW007 BKN021 OVC050 0 0 0% 29.79 1008.9 0.23 1.7
19 11:51 E 17 G 28 3.00 Rain SCT012 BKN031 OVC100 0 0 0% 29.8 1009.2 0.27
19 10:56 E 20 G 28 5.00 Light Rain SCT014 BKN025 OVC070 0 0 0% 29.78 1008.5 0.29
Date Time (cdt) Wind (mph) Vis. (mi.) Weather Sky Cond. Air Dwpt Max. Min. Relative Humidity Wind Chill (°F) Heat Index (°F) altimeter (in) sea level (mb) 1 hr 3 hr 6 hr
6 hour
Temperature (ºF) Pressure Precipitation (in)